Regional Weather Roundup
Issued by NWS

Home | Current Version | Previous Version | Text Only | Print | Product List | Glossary On
Versions: 1 2 3 4 5 6 7 8 9 10 11 12 13 14 15 16 17 18 19 20 21 22 23 24 25 26 27 28 29 30 31 32 33 34 35 36 37 38 39 40 41 42 43 44 45 46 47 48 49 50
786
ASUS43 KDTX 222110
RWRMI
MICHIGAN HOURLY REGIONAL WEATHER ROUNDUP
NATIONAL WEATHER SERVICE DETROIT/PONTIAC MI
ISSUED BY NATIONAL WEATHER SERVICE GRAND RAPIDS MI
400 PM EST WED FEB 22 2017

NOTE: "FAIR" INDICATES FEW OR NO CLOUDS BELOW 12,000 FEET WITH NO
SIGNIFICANT WEATHER AND/OR OBSTRUCTION TO VISIBILITY.

MIZ047>049-052>055-059>063-066>070-074>076-081>083-222200-
SOUTHEAST LOWER MICHIGAN

CITY           SKY/WX    TMP DP  RH WIND       PRES   REMARKS
ADRIAN         CLOUDY    63  54  72 SW9       29.76F
ALMA           PTSUNNY   63  53  69 SW13G20   29.70S
ANN ARBOR      CLOUDY    63  53  70 S13       29.75F
BAD AXE        PTSUNNY   63  52  68 SW16      29.70S
DETROIT CITY   CLOUDY    62  54  74 S8        29.75F
DETROIT        CLOUDY    64  54  69 SW12      29.76F
FLINT          PTSUNNY   62  52  69 SW10G18   29.73F
GROSSE ILE     CLOUDY    51  47  87 SW6       29.76S FOG
HILLSDALE      CLOUDY    59  52  77 SW7       29.75F
HOWELL         CLOUDY    60  51  73 SW7       29.74F

CITY           SKY/WX    TMP DP  RH WIND       PRES   REMARKS
JACKSON        CLOUDY    61  52  72 SW10      29.75S
LANSING        PTSUNNY   61  52  72 S17       29.73F HAZE
MASON          CLOUDY    59  54  82 CALM      29.74F
MONROE         CLOUDY    63  55  76 S8G17     29.75F
MT. CLEMENS    CLOUDY    60  55  83 S7        29.74S HAZE
PONTIAC        CLOUDY    60  51  72 SW8       29.74S
PORT HOPE        N/A     63  53  70 VRB6G16   29.67F
PORT HURON     CLOUDY    61  54  77 S9        29.75S
TRI CITIES     MOSUNNY   63  53  70 SW15G22   29.69F
YPSILANTI      CLOUDY    64  55  72 SW9       29.76S
$$
MIZ043>046-050>051-056>058-064>065-071>073-077>080-222200-
SOUTHWEST LOWER MICHIGAN

CITY           SKY/WX    TMP DP  RH WIND       PRES   REMARKS
BATTLE CREEK   CLOUDY    60  54  80 S13       29.74F
BENTON HARBOR  PTSUNNY   63  53  70 S13       29.70F
BIG RAPIDS     CLOUDY    56  52  84 S10G17    29.65F
COLDWATER      CLOUDY    61  54  76 S7        29.75F
HOLLAND        SUNNY     64  53  67 SW14      29.69F
GRAND RAPIDS   MOSUNNY   64  53  67 S16       29.68F
KALAMAZOO      MOSUNNY   61  51  70 S13       29.73F
MARSHALL       CLOUDY    60  54  79 SW8       29.74F
MOUNT PLEASANT MOSUNNY   64  53  69 SW10      29.67F
MUSKEGON       FOG       52  51  97 S14G21    29.67F VSB 1
STURGIS        CLOUDY    61  54  77 S7        29.74F
$$
MIZ016>042-222200-
NORTHERN LOWER MICHIGAN

CITY           SKY/WX    TMP DP  RH WIND       PRES   REMARKS
ALPENA         CLOUDY    57  50  77 S13G21    29.63R
BEAVER ISLAND  FOG       44  44 100 W7        29.59R VSB 1/4
BELLAIRE       MOSUNNY   62  45  53 S10G18    29.55F
CADILLAC       PTSUNNY   57  50  77 S13G20    29.61F
CHARLEVOIX     CLOUDY    60  45  59 NW10      29.58F
GAYLORD        CLOUDY    57  45  64 S14       29.59F
HOUGHTON LAKE  CLOUDY    56  49  77 SW8       29.65F
MANISTEE       MOSUNNY   57  50  77 S14G21    29.57F
OSCODA         CLOUDY    54  51  91 SW12G21   29.66F FOG
PELLSTON       MOSUNNY   59  45  59 S3        29.56F
TRAVERSE CITY  PTSUNNY   63  47  55 S9G18     29.54F
LUDINGTON      CLOUDY    53  51  92 S14G20    29.59F FOG
$$
MIZ007>008-015-222200-
EASTERN UPPER MICHIGAN

CITY           SKY/WX    TMP DP  RH WIND       PRES   REMARKS
KINROSS        LGT RAIN  47  45  93 SW5       29.61R
MACKINAC ISLAN CLOUDY    44  44 100 NE3       29.60S
NEWBERRY       CLOUDY    41  39  93 CALM      29.58F
S. S. MARIE    CLOUDY    43  38  82 SE3       29.61R
$$
MIZ004>006-011>014-085-222200-
CENTRAL UPPER MICHIGAN

CITY           SKY/WX    TMP DP  RH WIND       PRES   REMARKS
MANISTIQUE     MOSUNNY   40  39  97 S3        29.59R
ESCANABA       CLOUDY    45  40  82 E6        29.56F
MENOMINEE      CLOUDY    55  44  66 SE5       29.54F
SAWYER-GWINN   PTSUNNY   43  39  87 NE7       29.58S
$$
MIZ001>003-009>011-084-222200-
WESTERN UPPER MICHIGAN

CITY           SKY/WX    TMP DP  RH WIND       PRES   REMARKS
IRON MOUNTAIN  CLOUDY    52  39  61 NW7       29.56R
HOUGHTON       CLOUDY    37  32  82 N5        29.59F WCI  33
COPPER HARBOR    N/A     37  34  89 N3        29.61S
IRONWOOD       CLOUDY    44  36  73 E7        29.59F
$$

ABBREVIATIONS USED IN REMARKS
   TC - TEMPERATURE IN CELSIUS
  WCI - WIND CHILL INDEX
   HX - HEAT INDEX
  VSB - VISIBILITY





USA.gov is the U.S. government's official web portal to all federal, state and local government web resources and services.